GFSCGP_250_spd_096.txt.gz
Wind_Speed
100 105 100 99 99 98 94 91 87 82 75 73 67 67 61 58 52 49 51 41 47 46 40 37 34 36 29 27 31 34 37 34 33 34 35 36 40 44 42 45 45 45 48 49
104 103 105 107 104 100 94 89 85 85 84 82 76 69 62 62 58 52 51 51 52 50 49 42 41 36 34 33 38 39 40 39 35 38 36 39 42 41 47 53 49 47 50 50
108 107 110 109 106 101 93 89 82 82 74 72 73 75 64 56 58 54 57 51 50 50 43 44 42 40 41 37 37 40 41 39 41 42 43 43 45 49 55 52 48 51 53 50
113 111 112 114 106 100 99 93 92 88 79 75 74 68 75 60 60 52 56 49 52 49 40 45 41 46 42 40 42 41 42 43 45 45 49 48 51 57 53 52 51 53 56 60
111 113 115 116 106 104 102 100 97 95 92 86 74 71 72 70 64 61 58 60 57 58 47 45 43 47 47 44 40 39 46 50 45 47 50 55 57 54 53 51 55 63 63 64
117 111 119 117 112 109 106 103 101 100 100 99 81 66 64 65 67 64 66 64 59 54 56 53 52 46 44 46 45 47 50 55 55 56 56 55 62 60 58 60 68 69 73 76
121 106 109 119 115 112 110 104 103 100 98 88 91 86 76 76 71 65 67 69 66 62 62 64 59 53 54 53 53 57 58 57 56 54 61 64 62 67 65 71 72 74 77 79
120 108 107 113 115 113 110 110 101 96 90 87 86 82 77 80 81 78 76 73 75 76 76 67 67 62 62 59 58 58 59 58 63 66 67 71 73 75 79 73 77 79 80 81
119 117 102 103 113 115 112 110 102 97 94 95 93 85 78 79 80 80 78 78 74 70 77 76 71 70 70 72 74 74 71 69 69 72 74 75 80 75 74 80 80 81 84 87
125 122 108 99 108 114 115 113 109 103 100 95 87 82 79 82 84 82 84 84 82 83 82 79 77 77 79 78 77 78 73 74 77 74 78 74 76 77 80 80 83 87 90 97
124 125 109 104 114 114 114 115 112 108 104 97 93 90 84 87 89 88 88 90 92 90 89 84 82 78 80 82 84 77 76 81 82 85 85 83 78 82 83 84 88 92 97 102
126 133 119 111 104 109 116 116 116 115 107 105 103 95 88 88 90 94 92 95 94 91 90 89 85 85 86 83 88 82 84 85 89 89 91 85 85 89 88 90 97 100 101 104
122 130 128 121 111 106 112 118 121 117 116 113 108 98 100 98 99 99 97 96 98 97 91 93 94 93 89 89 89 86 86 89 90 95 88 89 92 94 97 100 103 109 105 106
122 128 134 122 114 109 103 109 114 119 116 109 108 104 104 102 103 104 104 104 101 100 98 97 99 98 91 88 91 93 90 96 97 92 94 94 95 101 105 109 111 108 110 111
120 124 133 126 119 121 108 110 113 113 110 117 102 105 106 106 106 107 107 101 101 102 102 102 98 94 93 92 96 100 101 99 96 96 97 98 105 112 115 110 113 114 114 117
122 123 128 130 125 129 121 109 112 116 117 117 109 105 103 109 108 107 106 105 104 101 102 100 96 99 99 100 101 99 97 97 98 101 107 112 117 116 116 119 119 118 118 119
114 124 123 129 122 127 131 119 109 109 112 107 109 97 103 106 106 107 108 107 103 101 98 95 96 97 99 100 98 99 102 106 110 114 117 119 119 118 121 120 120 122 123 126
116 121 121 125 123 123 119 118 121 111 111 113 108 105 107 108 110 109 109 109 105 104 100 102 104 105 107 111 112 112 115 116 119 123 122 122 120 124 124 122 123 124 126 129
102 117 120 122 120 116 112 117 121 121 113 110 112 111 112 115 119 118 115 110 109 110 110 110 111 112 116 118 119 122 122 124 122 124 124 124 123 126 126 126 125 128 128 130
92 104 118 123 128 117 105 106 114 123 114 99 105 107 115 124 128 119 124 122 123 123 125 123 123 127 125 126 126 124 124 123 124 125 126 123 127 127 127 127 127 128 130 130
92 97 101 110 115 110 106 109 115 118 97 108 109 107 110 116 119 120 126 126 125 123 124 128 129 126 127 126 126 127 124 122 122 121 122 124 125 125 126 128 130 129 133 134
94 99 101 113 112 113 114 111 111 106 101 109 114 114 113 110 113 113 115 118 121 123 123 121 120 121 123 122 121 120 121 120 122 121 122 124 127 128 130 130 130 131 132 136
90 91 92 100 103 111 115 119 116 114 112 109 105 111 113 112 112 112 112 111 114 114 113 113 114 116 118 118 120 120 122 122 123 124 126 127 129 130 131 131 129 132 134 137
91 91 92 91 90 98 105 112 119 115 113 109 110 108 104 108 110 110 109 112 114 116 116 115 116 119 119 120 121 123 122 125 127 129 131 128 128 128 128 129 132 132 132 135
87 88 89 94 92 92 96 101 108 114 114 109 107 106 107 109 108 108 111 113 114 112 113 116 118 119 121 122 122 123 125 126 126 127 128 130 129 131 131 131 131 132 131 131
93 92 92 91 94 97 97 98 101 103 107 110 109 110 110 108 109 112 113 114 114 115 116 118 118 120 122 121 123 123 124 126 127 127 128 128 129 129 128 128 127 129 128 130

GFSCGP_250_spd_102.txt.gz
Wind_Speed
99 93 84 78 78 73 72 70 79 78 72 70 71 77 73 71 71 68 66 60 54 53 47 44 42 45 50 40 46 36 31 36 37 32 34 36 32 37 39 40 39 41 41 43
98 91 88 87 82 77 72 77 72 85 81 77 77 72 74 68 71 67 64 60 58 56 54 55 50 55 50 44 43 44 42 41 41 38 35 34 35 38 40 42 44 44 45 45
102 100 96 94 87 77 76 74 73 76 89 90 86 85 84 79 78 71 66 63 64 60 58 59 57 54 48 47 46 46 48 43 47 42 42 39 40 42 42 42 43 45 47 52
106 104 100 94 88 83 76 80 83 79 87 90 87 82 78 74 68 66 64 61 65 68 64 62 60 60 53 51 55 52 49 46 49 47 48 49 50 52 47 43 45 47 50 51
108 106 101 100 91 92 85 82 86 91 86 94 91 86 76 78 74 72 66 66 66 68 65 64 55 50 51 57 57 55 53 53 48 46 50 51 55 53 50 48 49 50 50 60
116 113 108 101 97 94 88 87 92 94 92 99 92 94 87 81 77 72 71 69 68 68 70 64 60 58 61 61 65 61 60 53 55 56 61 60 60 58 52 51 53 55 61 63
116 112 109 103 102 98 96 86 88 100 99 80 94 101 83 81 74 74 75 72 69 67 66 64 69 66 63 64 66 60 66 58 57 60 61 63 63 61 60 62 62 67 67 69
119 118 111 105 103 101 101 99 92 94 93 82 92 96 91 89 87 80 79 76 73 73 72 70 76 77 69 71 69 67 65 60 59 61 64 64 66 64 69 69 70 73 72 76
103 107 106 101 97 97 97 98 92 97 95 98 95 94 93 91 89 82 83 81 79 82 80 78 79 84 78 80 72 68 68 65 63 68 71 66 69 72 69 74 74 79 82 81
99 99 98 95 97 100 97 91 94 95 98 100 94 91 95 93 91 88 92 89 88 89 86 85 87 84 82 80 71 75 76 70 68 72 71 71 75 76 74 76 79 82 85 88
102 99 96 96 96 92 93 93 95 95 96 98 101 90 98 103 95 92 90 92 89 89 86 83 83 81 78 78 74 79 81 77 70 72 77 79 80 84 81 83 87 90 90 90
113 108 104 101 102 100 103 100 99 104 98 98 106 91 88 98 101 97 93 91 92 93 87 85 86 85 81 83 83 78 76 77 79 80 83 86 87 90 89 91 93 94 96 96
114 111 108 107 111 105 105 96 102 102 102 105 103 101 93 90 101 105 103 100 97 99 93 91 94 90 88 84 83 82 85 89 89 90 89 89 87 92 92 97 99 99 101 101
115 111 110 110 111 117 112 103 106 108 112 101 105 97 97 88 98 105 108 107 106 108 99 97 99 91 90 90 91 92 93 97 98 94 90 92 94 99 102 101 102 103 104 105
105 106 110 110 111 116 113 107 103 108 108 110 93 100 108 89 93 105 110 109 108 110 108 108 107 103 102 96 99 99 99 99 98 95 98 99 99 100 103 106 105 107 110 107
96 96 104 108 109 112 116 116 104 104 108 104 96 103 99 96 93 104 109 111 113 114 113 116 114 112 111 107 102 97 103 101 103 100 102 104 104 104 106 107 108 111 112 113
81 88 94 103 109 110 113 111 108 105 112 105 106 96 103 102 95 100 113 116 116 116 117 117 118 117 113 110 104 104 108 109 108 107 107 108 107 108 108 110 114 116 116 119
72 78 84 95 108 112 101 101 101 103 111 112 102 97 104 95 101 99 106 113 115 114 116 120 120 118 116 113 113 110 110 112 112 111 110 114 114 113 115 118 120 122 124 124
60 62 67 77 87 97 98 96 99 98 104 109 100 100 101 100 108 103 103 108 112 117 117 118 119 118 118 118 118 115 113 113 116 118 116 118 120 121 121 121 124 125 127 128
57 63 68 67 69 67 62 81 87 93 94 103 102 99 104 104 106 103 101 106 110 116 116 117 118 118 117 118 120 119 118 117 117 121 122 123 125 126 122 123 127 129 129 131
63 65 64 65 67 60 60 69 76 79 81 96 106 102 104 106 101 104 112 105 101 104 108 110 113 116 117 118 119 117 118 118 123 124 125 123 123 123 127 128 128 128 128 129
63 66 65 65 62 55 56 65 70 74 82 93 96 101 103 103 104 102 104 110 106 100 102 105 109 113 116 118 119 119 116 119 121 122 122 122 123 124 124 125 125 129 133 134
56 62 67 66 60 63 64 67 71 74 76 83 89 96 100 102 100 98 103 106 111 106 102 105 105 107 110 112 115 115 115 116 119 121 121 122 123 125 127 129 130 131 131 133
51 53 58 63 61 64 63 67 71 75 78 80 83 87 95 104 105 100 98 103 106 101 95 101 108 110 112 115 118 119 122 124 125 125 125 126 128 128 129 128 129 131 133 134
54 53 49 54 60 67 68 70 73 75 80 84 85 86 88 89 92 96 98 99 104 108 109 103 100 105 112 114 114 117 120 122 123 123 125 128 130 131 130 130 132 133 135 135
58 55 53 48 53 61 67 72 73 75 76 79 86 90 91 90 91 92 93 94 95 98 103 109 113 107 105 109 113 115 117 119 120 122 123 124 124 125 126 128 130 130 131 129

GFSCGP_250_spd_105.txt.gz
Wind_Speed
92 89 81 78 78 75 71 68 65 61 60 61 66 66 69 65 58 55 55 55 56 52 45 46 48 41 37 41 43 42 41 42 39 36 35 35 38 38 35 34 32 36 39 36
98 90 87 89 89 82 75 73 69 68 66 59 62 70 71 70 68 68 63 60 57 52 54 59 54 51 47 47 49 43 45 46 41 43 45 42 41 39 39 40 42 43 47 44
102 97 94 92 90 87 81 78 77 75 72 64 61 64 68 71 70 68 61 61 63 60 63 64 59 54 51 51 49 49 49 48 50 48 48 49 44 41 46 47 49 50 51 51
105 100 98 96 92 89 86 86 86 81 79 67 68 59 69 70 70 68 64 64 64 65 62 65 58 57 57 57 53 55 55 57 55 49 51 50 47 47 50 49 50 55 55 58
105 101 100 98 96 96 92 91 94 89 83 73 69 61 68 73 65 72 70 70 69 71 69 64 66 65 60 61 59 57 59 55 53 52 55 54 53 57 50 57 57 58 62 63
108 106 104 99 101 102 99 95 94 92 90 76 72 70 58 72 76 74 70 71 69 71 72 73 72 65 63 66 67 62 62 56 54 54 58 58 61 58 59 58 61 64 66 65
110 110 107 106 107 107 103 99 98 98 94 78 77 77 60 65 77 83 79 75 79 79 72 66 68 68 65 70 66 65 65 61 59 58 60 63 64 65 66 63 65 64 68 69
118 116 111 112 109 109 109 106 107 106 98 90 87 80 64 69 74 83 86 78 77 74 71 69 76 76 74 74 69 70 71 70 64 62 63 65 66 66 65 63 68 65 70 74
119 118 115 115 114 114 114 111 111 108 102 101 91 80 74 75 75 80 87 85 81 80 79 80 83 78 77 77 73 70 70 73 74 71 75 70 71 70 73 74 69 70 74 76
121 121 119 121 121 119 116 116 115 109 108 101 97 88 74 77 70 76 84 88 87 87 86 88 88 80 84 82 76 77 75 79 77 75 76 78 75 72 74 74 74 73 77 76
126 124 123 124 121 118 118 117 115 113 109 106 99 93 85 83 78 77 83 89 95 96 93 90 87 87 87 83 81 81 82 80 86 78 81 82 82 77 76 82 79 75 77 79
117 120 124 123 124 121 120 122 120 117 112 111 107 97 92 87 81 82 85 90 94 97 100 98 95 94 94 91 94 87 88 87 88 85 78 83 84 79 79 81 81 82 86 90
111 112 115 116 118 120 121 118 115 116 116 112 110 91 87 86 82 88 88 92 93 96 97 101 101 100 103 96 97 94 92 96 91 83 82 83 86 87 85 84 86 91 94 97
108 105 110 111 110 114 112 112 116 118 119 109 108 85 84 86 87 92 96 98 97 96 101 102 105 108 107 104 103 103 101 99 95 87 87 88 96 89 85 88 91 96 100 103
98 99 103 108 107 108 109 111 112 111 104 110 91 96 85 86 90 97 101 99 102 103 100 105 107 108 109 107 104 103 99 92 90 91 89 90 93 93 90 93 95 101 103 109
91 91 97 99 105 110 112 114 113 107 105 103 97 98 93 91 94 100 103 108 106 105 104 108 111 111 111 110 107 102 100 97 101 96 91 98 97 95 96 99 101 106 111 110
82 82 87 89 96 103 108 104 112 108 110 104 106 95 104 97 95 101 104 102 107 101 106 109 115 116 118 119 114 111 108 103 100 96 102 105 107 107 105 104 106 110 114 115
64 68 81 83 92 95 85 95 101 107 110 109 107 102 105 105 107 103 105 102 106 105 107 108 109 109 116 116 119 120 117 115 114 111 112 114 113 115 115 116 118 117 120 119
61 61 64 68 75 74 71 74 78 81 84 92 98 105 108 110 112 102 104 107 108 111 103 104 104 105 110 115 118 120 121 120 117 116 115 118 122 123 122 123 124 122 122 124
51 59 58 58 59 55 55 63 69 75 67 81 90 101 109 116 112 107 107 110 111 112 108 103 101 101 104 112 117 118 118 117 119 121 121 121 123 123 123 123 124 122 124 126
48 50 50 53 51 50 54 62 68 67 63 81 85 90 100 108 112 111 113 108 103 107 112 109 99 96 102 106 109 114 117 118 120 118 118 122 123 125 124 123 122 122 122 124
32 37 41 47 48 48 52 56 63 65 69 72 77 81 87 95 99 99 99 105 104 99 112 114 111 107 99 105 107 109 109 114 114 117 120 118 117 116 118 120 120 121 123 122
40 38 39 40 50 52 56 57 59 62 64 65 67 72 78 81 84 87 87 86 81 79 92 107 105 102 103 107 103 105 107 109 111 111 113 115 116 117 119 121 123 122 123 125
52 49 38 39 39 46 55 60 61 63 65 64 65 65 67 72 72 73 77 80 81 80 82 94 103 98 97 103 109 107 108 107 109 112 112 112 114 116 118 120 123 125 125 126
63 59 49 40 42 49 51 56 60 62 63 64 65 67 70 74 76 78 77 77 78 79 80 82 88 92 94 95 100 101 104 110 114 111 114 117 116 116 118 120 122 123 125 126
63 65 60 66 54 47 51 52 52 53 60 64 66 68 72 75 77 80 82 81 81 82 82 84 87 89 91 93 94 95 98 100 102 106 109 111 112 113 116 119 121 121 122 125

GFSCGP_250_spd_111.txt.gz
Wind_Speed
97 93 80 81 77 77 70 66 67 67 62 55 49 56 64 64 64 60 56 56 54 55 47 48 51 43 46 39 38 39 34 36 37 36 33 32 38 41 40 40 42 42 43 46
98 92 87 86 84 81 75 73 72 70 65 62 60 53 50 47 57 61 63 60 61 57 52 53 53 47 52 44 44 46 38 38 42 40 42 40 42 45 48 45 47 48 49 49
99 92 94 91 88 87 82 78 76 75 67 65 60 55 55 51 43 44 58 63 63 61 59 57 57 52 51 49 50 55 43 44 51 54 49 46 49 47 49 51 53 55 53 54
103 98 96 94 91 90 86 83 83 79 76 72 63 58 58 54 50 46 49 59 68 63 65 66 61 56 58 54 52 55 53 45 54 57 55 53 54 54 51 52 58 59 59 60
103 98 97 95 94 94 90 88 88 83 80 75 70 64 64 61 55 61 57 54 54 57 67 66 65 66 62 59 56 60 60 54 57 54 60 59 62 63 60 56 59 61 63 62
111 105 102 97 98 99 93 92 92 89 88 81 77 70 67 67 69 68 66 64 61 57 56 60 68 66 65 65 67 63 65 67 62 62 60 65 65 67 67 64 61 68 70 72
110 109 106 101 99 98 97 95 95 95 92 80 84 78 67 75 77 76 76 73 70 67 63 60 60 70 72 70 70 70 69 69 66 70 70 68 63 65 72 73 69 69 72 73
114 108 106 104 102 99 97 98 98 97 95 91 90 81 73 78 82 84 82 81 78 75 72 69 64 64 66 70 76 79 81 80 77 75 78 79 74 69 71 74 78 73 76 75
114 113 110 108 106 101 101 102 100 100 101 100 94 86 84 82 87 85 86 84 83 80 78 75 74 72 68 69 71 75 79 79 81 80 78 81 81 81 82 83 81 80 79 82
115 117 115 113 112 109 105 103 102 105 105 103 97 93 90 88 89 91 91 90 89 88 86 83 81 79 77 74 72 72 78 82 81 82 83 85 88 85 89 89 85 86 83 86
118 117 117 115 113 111 110 107 107 107 108 106 101 97 94 91 91 91 93 93 94 96 94 91 89 87 85 82 81 79 77 81 83 85 87 89 87 90 91 92 91 93 93 88
123 122 118 117 118 118 116 114 113 113 111 109 108 95 94 96 96 96 96 97 100 100 101 99 96 94 93 92 91 89 87 85 84 85 88 88 94 93 97 93 98 99 96 92
120 123 123 123 120 118 118 117 115 117 117 115 115 99 100 101 103 104 103 102 102 105 105 104 103 101 98 98 97 97 96 94 93 92 91 91 91 96 99 102 101 99 98 102
124 124 121 117 114 114 115 118 122 126 128 115 117 103 107 109 112 112 111 110 109 110 110 110 110 108 106 106 104 104 102 101 101 101 100 98 96 97 95 98 100 104 104 107
119 118 119 124 123 123 124 126 129 127 117 124 111 114 107 118 117 118 120 119 116 114 113 114 113 111 110 110 110 110 109 109 108 107 108 107 104 103 102 101 102 105 110 112
115 117 122 122 120 123 128 126 123 121 122 128 121 124 117 121 126 128 126 125 121 119 120 120 117 116 117 116 115 116 115 115 114 115 112 110 108 105 105 104 105 107 110 114
114 117 118 117 117 119 123 120 122 120 124 125 129 125 129 127 129 132 130 128 126 125 125 125 124 123 122 122 122 122 121 121 121 120 121 118 113 109 108 107 108 110 112 114
100 104 110 117 119 120 112 117 118 119 121 123 124 123 132 131 133 136 135 132 132 130 129 130 130 131 130 129 128 124 125 124 122 121 122 120 116 112 107 104 105 109 113 116
103 105 109 112 110 110 111 111 112 116 119 120 115 118 123 125 131 125 137 138 133 131 129 129 129 129 131 130 127 122 120 121 120 119 120 117 113 112 109 102 103 100 102 108
92 96 100 99 101 102 103 102 104 109 108 112 116 116 117 119 115 117 120 120 120 120 120 119 118 118 117 118 117 117 116 116 115 117 115 116 114 112 112 108 108 105 101 102
86 88 86 87 88 87 90 93 94 95 99 106 110 112 112 109 104 102 103 104 104 104 104 103 103 103 103 105 102 98 97 97 100 102 101 104 112 113 113 112 109 109 106 104
81 80 80 81 80 81 79 79 85 91 96 95 96 97 97 95 94 92 93 94 87 86 87 87 89 90 88 88 87 85 85 87 89 87 88 90 93 98 105 108 110 114 112 111
77 74 69 70 67 70 73 74 76 81 87 87 83 81 83 85 83 82 82 80 80 80 82 82 83 83 84 86 84 83 84 83 85 85 84 85 87 89 92 95 97 99 104 109
78 72 68 64 61 65 67 68 69 65 71 69 68 65 68 72 76 77 76 75 74 73 75 78 80 82 84 84 85 85 85 86 88 89 89 90 92 92 92 93 94 95 96 96
74 73 72 67 60 64 68 62 54 60 54 58 59 53 53 54 53 56 57 58 61 62 62 64 67 71 74 76 79 82 83 83 86 89 89 91 93 95 95 94 94 92 91 92
78 71 67 63 64 63 62 51 36 45 48 44 48 50 44 36 39 38 39 45 49 49 51 54 59 62 62 63 64 65 65 66 66 68 71 76 80 84 87 88 89 90 89 89

GFSCGP_250_spd_114.txt.gz
Wind_Speed
103 101 92 82 80 81 77 72 65 65 60 53 53 49 64 68 65 62 60 57 57 56 51 53 52 51 48 49 47 44 42 39 39 36 31 35 38 37 35 36 36 38 42 48
109 97 93 91 88 84 82 75 73 71 61 58 57 53 56 55 58 63 63 63 62 61 55 56 55 52 52 50 51 47 44 44 43 43 39 38 40 40 43 46 44 45 44 47
103 96 100 96 91 89 84 81 78 75 66 65 63 56 51 51 52 57 60 62 64 65 65 64 61 55 56 56 53 53 53 50 49 44 49 45 41 46 52 54 49 51 54 54
107 107 106 102 94 94 88 86 82 79 73 71 64 57 59 55 55 53 53 55 60 65 68 67 67 63 61 59 56 53 55 54 50 52 53 53 45 47 48 51 59 60 61 62
106 103 105 101 96 96 92 88 87 82 78 74 68 62 62 59 54 55 55 53 52 50 54 65 63 68 63 62 61 57 59 58 55 54 57 58 63 56 56 57 53 51 58 67
118 111 107 103 103 101 96 92 92 89 85 80 74 67 61 63 62 65 61 61 61 58 56 51 51 58 61 63 62 63 63 60 60 60 58 61 65 66 63 63 67 68 66 68
121 114 107 106 107 104 101 96 97 96 88 81 78 72 61 66 69 71 70 70 64 65 61 58 57 56 56 58 65 62 65 64 63 63 63 66 69 71 73 75 68 76 78 76
121 114 110 107 107 101 100 98 96 94 90 83 83 78 68 69 73 78 77 75 72 71 70 70 67 66 63 61 60 58 60 63 67 65 69 70 71 76 76 78 77 81 84 86
121 116 113 112 107 102 101 102 98 97 94 90 85 80 79 76 77 77 81 82 80 78 78 77 76 74 72 71 70 68 67 66 66 67 69 72 75 78 81 85 85 87 91 88
125 120 120 117 112 108 102 103 101 99 97 94 90 89 86 85 83 84 83 83 85 86 84 83 81 79 77 76 76 74 75 75 75 75 74 73 73 75 75 77 82 81 87 93
128 125 122 118 115 108 105 104 102 101 100 96 92 91 88 86 87 87 87 88 88 88 87 89 89 87 85 84 84 84 83 84 84 83 84 85 83 83 83 84 83 84 83 88
130 128 123 119 115 113 111 109 108 107 103 101 99 95 93 91 92 90 91 95 95 96 94 95 94 93 93 92 91 90 90 91 93 94 93 93 91 91 93 94 94 94 93 94
130 127 123 122 120 116 113 110 109 110 109 104 102 92 93 95 96 95 96 98 100 101 103 102 100 99 98 96 96 97 97 98 99 99 99 101 100 99 102 103 103 104 103 105
133 129 126 117 113 111 113 113 112 113 110 105 104 99 99 103 103 102 101 101 102 105 104 102 101 102 103 103 103 103 103 104 104 104 106 106 106 107 109 110 110 110 111 111
132 131 127 121 118 118 115 117 117 117 110 114 100 106 107 107 106 105 105 107 109 107 106 106 107 109 109 109 109 110 111 112 112 112 113 115 115 116 116 116 117 118 119 120
134 132 130 124 118 118 119 119 119 115 111 113 106 103 105 112 114 113 115 112 113 111 109 110 112 113 114 116 116 116 116 118 119 120 123 123 123 122 122 123 124 125 124 124
137 135 130 127 126 121 125 117 116 112 114 111 115 104 113 115 116 116 119 117 114 117 118 118 120 120 119 119 120 122 123 125 128 129 130 129 128 127 127 127 129 128 129 127
127 128 129 129 133 126 116 118 117 116 117 115 112 110 116 116 120 122 119 120 122 121 122 124 123 123 125 126 127 130 131 131 131 131 132 133 133 133 132 131 131 127 124 121
107 117 122 121 123 114 117 118 118 119 117 118 116 119 118 119 122 120 123 127 126 127 127 126 126 129 131 132 133 133 134 134 134 133 133 135 134 132 130 126 124 120 116 114
97 104 106 113 117 113 105 108 114 117 115 114 115 119 120 122 120 121 127 126 127 128 130 132 132 132 133 136 137 134 133 133 129 126 123 121 121 121 119 114 115 110 102 98
96 94 95 99 99 99 92 93 99 106 104 113 119 121 121 118 117 119 122 125 126 126 127 127 128 128 126 124 121 118 118 114 113 113 110 109 107 104 102 97 93 93 92 93
87 84 81 78 79 80 77 71 75 85 103 108 108 106 102 104 109 114 118 118 118 115 113 112 108 108 106 106 102 99 100 98 99 97 97 99 98 94 93 94 90 90 90 93
84 82 81 74 66 63 64 70 77 84 93 97 93 90 96 99 100 99 98 100 103 101 100 102 100 95 94 92 90 88 90 92 92 91 90 90 91 92 91 89 89 91 92 91
89 84 76 68 63 65 69 75 77 78 80 79 82 85 83 86 88 89 90 88 90 90 90 84 81 81 83 85 87 89 91 90 87 83 82 83 84 86 86 86 86 88 90 91
85 75 72 69 70 71 71 71 74 77 77 73 72 71 77 82 82 81 84 79 77 74 74 77 77 78 79 79 77 75 70 70 70 68 67 68 71 73 73 73 74 74 75 75
77 71 70 67 69 70 71 73 69 70 69 66 66 65 72 78 76 71 65 54 56 61 65 65 63 60 59 60 57 58 57 58 59 60 61 62 64 65 66 67 70 72 74 75

GFSCGP_250_spd_117.txt.gz
Wind_Speed
111 103 93 91 94 87 82 77 69 68 68 58 52 49 43 47 56 56 58 60 61 55 51 56 54 50 50 45 40 43 43 40 42 43 39 41 36 39 37 39 38 36 39 43
114 100 97 99 97 94 88 82 76 74 68 62 60 52 48 42 44 54 57 59 62 59 58 58 57 54 55 50 48 47 49 48 47 48 47 45 47 47 48 41 42 42 38 43
111 102 105 100 96 94 90 87 83 75 73 67 63 57 53 50 46 44 52 58 61 64 60 60 58 58 58 58 54 53 51 52 53 52 52 53 52 53 52 53 52 51 48 46
118 110 106 101 98 94 94 91 88 82 77 73 69 62 57 53 49 48 45 45 54 59 65 62 59 62 62 60 61 62 62 58 56 57 56 56 58 58 56 56 56 58 59 56
116 110 104 100 93 98 94 96 91 87 81 78 77 68 63 58 53 55 54 50 49 50 46 50 59 60 60 60 64 65 62 61 58 61 63 59 62 61 62 59 59 63 61 66
126 122 117 106 103 99 99 97 96 92 91 83 75 74 64 61 58 59 57 60 56 53 52 50 49 51 51 53 57 63 62 62 64 65 64 67 64 65 67 69 65 66 68 70
129 125 120 115 109 104 101 100 99 101 96 83 79 75 64 65 65 65 63 64 63 60 58 58 55 52 52 52 52 51 54 58 55 54 55 56 60 64 67 69 71 72 73 74
127 130 119 115 112 102 93 94 96 93 91 86 85 81 70 68 72 71 69 67 66 66 65 65 65 61 58 58 58 57 58 57 56 58 61 63 65 65 64 65 66 68 75 78
122 125 123 120 115 108 103 98 95 93 91 92 91 81 77 74 73 74 75 74 72 70 70 70 69 67 66 66 66 65 66 67 67 67 68 69 69 68 69 73 73 75 77 80
118 121 124 122 121 116 110 104 101 96 93 94 92 90 84 79 82 81 79 78 80 80 77 75 75 74 72 73 74 73 73 74 75 75 75 76 77 79 81 81 83 85 86 88
117 123 126 122 124 116 112 107 102 96 94 91 91 89 87 85 83 83 84 83 80 79 80 81 80 80 80 78 79 80 82 82 82 83 84 84 85 86 88 89 91 92 93 94
117 124 127 122 121 117 115 111 111 106 99 95 89 91 90 88 91 88 85 83 85 88 88 86 85 83 81 83 85 87 88 88 88 88 89 91 92 94 96 98 98 99 99 100
119 124 124 128 125 121 119 113 110 107 106 101 99 93 94 93 91 93 92 94 92 90 90 90 90 88 87 87 88 89 92 94 93 94 95 98 99 99 100 100 102 103 105 108
123 119 119 119 111 113 117 117 115 112 107 103 98 96 96 96 98 98 98 98 98 96 94 90 90 90 91 94 96 95 97 99 101 102 103 104 105 106 107 108 110 112 114 117
131 124 121 117 115 115 117 120 119 118 111 108 96 102 103 102 99 98 99 100 100 100 97 94 95 96 97 98 98 100 102 104 105 107 108 109 109 111 114 116 117 120 122 124
140 131 122 121 121 124 119 123 124 120 117 112 110 104 102 101 100 100 102 104 102 100 100 100 99 101 101 102 102 103 104 107 109 112 114 116 117 119 122 124 125 128 128 131
139 132 129 118 122 120 126 121 119 118 116 109 112 104 111 112 108 106 105 105 103 105 106 108 109 108 108 108 107 107 109 112 116 118 120 121 123 125 126 129 131 133 133 135
136 135 134 126 123 125 117 116 116 119 122 118 110 108 107 109 110 109 110 109 108 109 111 112 114 113 114 114 115 116 116 119 121 123 124 125 128 130 131 133 134 134 131 131
131 131 130 134 125 122 117 111 110 112 110 114 113 113 111 110 113 111 108 111 114 114 113 114 115 117 118 119 119 120 121 122 125 126 127 127 128 128 128 127 125 125 123 119
129 130 119 121 135 132 119 112 108 114 117 114 114 114 111 110 110 107 113 116 116 115 118 120 122 122 121 121 122 123 125 126 127 128 127 123 122 122 119 118 110 107 104 102
142 141 132 116 117 136 132 122 118 118 109 114 115 114 116 115 113 116 117 117 116 121 121 123 124 125 124 124 125 125 125 127 125 120 115 111 112 115 113 109 108 100 97 96
127 129 112 96 121 131 134 130 122 115 116 118 117 118 121 124 124 120 116 116 120 124 124 124 123 122 121 120 122 120 120 119 116 114 112 111 107 100 95 94 95 95 95 95
124 115 127 125 127 122 127 133 131 135 135 134 128 125 122 117 110 107 108 117 113 114 119 119 116 115 116 115 112 109 103 104 102 98 95 94 91 89 90 90 90 84 80 79
118 124 129 127 119 120 111 107 105 108 109 112 115 108 102 96 89 91 94 94 98 102 105 105 102 101 101 96 97 94 94 90 88 87 84 84 83 81 79 77 76 75 74 72
105 105 108 107 102 91 90 90 83 81 86 85 84 84 82 79 76 78 79 80 84 87 89 89 84 84 86 84 80 82 80 80 77 75 71 71 70 70 69 70 70 69 69 70
97 103 99 89 82 76 77 81 84 81 75 77 76 73 68 69 70 71 73 74 76 78 78 77 75 74 69 69 68 64 62 62 63 62 62 54 55 58 57 60 56 62 66 68

GFSCGP_250_spd_123.txt.gz
Wind_Speed
107 109 106 100 99 99 96 91 86 85 83 78 74 69 63 56 49 54 57 61 60 56 53 55 54 51 49 50 49 46 44 45 41 44 44 46 46 47 45 50 49 49 49 49
111 106 104 105 106 103 97 92 89 89 89 84 81 74 66 59 57 55 48 49 52 55 58 60 58 56 55 56 54 50 47 49 50 48 49 50 50 50 52 53 55 54 56 59
112 109 110 107 108 104 98 96 94 92 94 88 83 82 72 65 60 60 59 53 52 51 54 57 57 59 59 59 56 54 52 52 53 52 53 54 56 57 58 58 59 57 55 56
117 114 114 111 107 103 101 99 100 98 97 93 87 80 79 72 64 62 60 58 58 54 53 54 54 56 59 58 58 56 53 52 54 54 57 58 58 60 61 63 64 62 60 65
116 116 116 111 104 106 101 105 105 102 99 94 91 85 80 75 69 62 66 60 56 50 48 44 48 54 47 47 49 51 51 53 57 55 57 62 64 62 61 64 64 65 64 63
122 120 121 114 114 110 107 108 106 102 101 95 87 86 79 79 73 72 68 66 64 61 57 53 50 48 48 45 48 48 49 52 54 53 55 57 55 53 55 55 55 57 58 58
127 124 121 120 119 115 110 108 106 102 101 85 87 89 71 78 80 77 72 68 67 62 63 61 56 52 50 51 47 46 47 46 46 47 49 51 51 52 55 57 56 57 60 62
129 127 125 120 118 114 109 109 108 105 101 92 95 87 74 73 79 80 77 77 72 69 66 66 65 61 58 57 56 56 55 53 52 51 56 56 57 58 58 59 62 64 68 70
129 128 129 125 125 122 118 115 109 111 106 102 96 82 80 77 78 81 81 80 78 75 71 69 71 70 70 62 59 59 59 60 61 60 62 63 64 65 67 69 72 74 76 77
131 132 130 131 130 130 123 116 121 119 112 106 95 89 80 75 76 82 82 82 82 81 77 74 72 72 73 74 74 69 66 65 64 64 66 68 69 70 72 74 77 79 82 82
129 132 129 130 131 126 124 127 122 118 114 107 99 93 84 81 81 85 84 85 85 83 81 79 76 75 76 76 77 76 74 73 73 73 72 72 74 76 78 79 82 84 85 86
125 131 130 132 129 131 130 131 128 129 120 115 111 100 93 89 85 84 88 87 87 86 85 83 83 83 80 79 79 78 79 80 81 81 80 81 82 82 84 86 87 87 88 87
122 130 130 132 133 130 134 131 127 127 125 123 118 100 98 95 91 88 91 91 91 90 88 89 88 86 85 82 80 80 81 82 83 83 83 83 85 87 89 90 89 89 90 93
125 129 129 127 127 128 128 127 125 129 132 124 124 109 103 101 97 95 96 98 97 94 91 89 88 87 86 84 84 84 84 85 86 86 87 89 90 91 92 93 92 93 95 98
123 125 124 121 121 127 125 127 125 129 126 131 118 117 109 108 106 102 101 100 99 97 96 94 90 87 86 87 88 88 88 90 90 91 93 94 94 94 94 95 97 99 100 102
124 126 126 124 123 125 129 125 126 127 125 130 126 122 113 114 113 108 105 102 99 98 96 94 90 87 87 88 89 90 90 92 92 92 93 94 95 97 98 99 101 103 106 108
125 126 128 126 122 123 127 121 121 117 117 121 120 111 110 114 115 113 111 105 102 101 100 96 94 92 93 94 94 95 95 94 95 96 97 98 99 100 102 104 105 106 109 111
128 130 129 126 126 132 123 118 117 117 115 121 118 112 112 111 109 113 113 111 106 102 99 96 96 96 96 97 97 97 97 98 98 99 100 101 102 104 106 108 108 112 114 117
115 127 131 130 125 123 118 113 109 110 106 108 117 115 111 113 111 112 110 108 105 103 103 102 100 102 101 100 98 98 99 100 102 102 103 106 109 104 102 104 107 111 112 117
97 108 120 123 124 121 103 98 106 111 113 106 105 108 113 115 116 98 106 105 105 106 106 105 104 104 104 101 100 100 99 102 108 108 110 109 97 102 102 109 114 113 115 113
81 87 95 98 107 109 99 100 109 115 94 94 102 104 115 117 109 102 107 106 106 107 106 104 103 102 103 104 102 103 104 106 107 107 105 115 116 107 109 109 113 112 110 108
73 79 77 79 87 89 88 99 102 84 94 96 107 105 111 117 114 111 108 104 102 103 102 103 106 106 106 107 107 104 104 100 80 82 91 101 106 110 112 113 111 109 106 103
79 76 75 73 67 59 71 66 66 72 78 86 96 104 109 108 115 113 109 104 99 101 100 100 97 98 102 101 98 99 96 98 89 107 109 111 112 117 114 110 105 100 98 97
87 84 78 74 63 69 70 73 73 73 73 80 88 90 97 104 104 104 108 110 115 111 110 104 104 103 100 103 101 99 103 102 100 105 111 113 114 108 103 99 99 97 82 78
94 88 83 79 79 77 76 78 79 79 73 72 77 85 89 92 97 103 99 89 94 107 113 112 105 103 104 102 101 104 100 106 113 118 112 104 99 97 95 89 81 77 71 72
97 90 88 87 80 75 62 65 75 73 76 70 76 87 92 93 92 93 96 90 95 103 97 100 98 103 93 95 100 101 114 114 110 101 100 94 90 88 82 77 72 70 69 72